Location: Bryzozowice
(50.3667°N, 18.9667°E)
Time: 19:11:03
(UTC+00:00)

FengYun 1-2 T - Pass Details

Date: 24 January 2020
Orbit: 846 x 881 km, 98.7° (Epoch: 16 February)

Event Time Altitude Azimuth Distance (km) Brightness Sun altitude
Rises 16:11:23 0° 149° (SSE) 3,458 7.3 -7.9°
Reaches altitude 10° 16:13:47 10° 146° (SE) 2,527 6.5 -8.2°
Maximum altitude 16:19:17 58° 68° (ENE) 1,023 4.3 -9.0°
Drops below altitude 10° 16:24:51 10° 351° (N) 2,552 6.6 -9.9°
Sets 16:27:17 0° 348° (NNW) 3,495 7.3 -10.2°
